Location: Haliburton Scout Reserve
(45.0900°N, 78.3200°W)
Time: 03:45:49
(UTC-05:00)

Tiangong - Pass Details

Date: 02 December 2022
Orbit: 383 x 386 km, 41.5° (Epoch: 01 February)

Event Time Altitude Azimuth Distance (km) Brightness Sun altitude
Rises 17:58:45 0° 239° (WSW) 2,249 3.4 -14.7°
Reaches altitude 10° 18:00:57 10° 227° (SW) 1,399 1.7 -15.1°
Maximum altitude 18:03:45 29° 165° (SSE) 731 -0.8 -15.6°
Enters shadow 18:04:45 24° 130° (SE) 846 -0.7 -15.7°
